Location: Sevilla
(37.3933°N, 5.9839°W)
Time: 12:01:43
(UTC+02:00)

S-56A Canister/Altair - Pass Details

Date: 23 June 2024
Orbit: 638 x 2488 km, 38.9° (Epoch: 14 July)

Event Time Altitude Azimuth Distance (km) Brightness Sun altitude
Rises 03:24:31 0° 285° (WNW) 5,130 11.8 -27.7°
Reaches altitude 10° 03:27:31 10° 285° (WNW) 4,343 11.3 -27.5°
Maximum altitude 03:40:07 79° 201° (SSW) 2,398 9.7 -26.7°
Drops below altitude 10° 03:55:18 10° 118° (ESE) 5,116 11.6 -25.7°
Sets 03:59:10 0° 117° (ESE) 6,054 12.1 -25.4°
